Location: Dal�� Lhota
(48.7500°N, 14.0167°E)
Time: 22:31:19
(UTC+00:00)

Vanguard 3 - Pass Details

Date: 08 August 2021
Orbit: 510 x 3260 km, 33.3° (Epoch: 19 September)

Event Time Altitude Azimuth Distance (km) Brightness Sun altitude
Rises 15:58:56 0° 239° (WSW) 4,750 12.1 23.5°
Reaches altitude 10° 16:01:49 10° 232° (SW) 4,090 11.7 23.0°
Maximum altitude 16:12:36 42° 167° (SSE) 3,227 10.3 21.2°
Drops below altitude 10° 16:28:49 10° 106° (ESE) 6,063 11.1 18.6°
Sets 16:34:15 0° 101° (E) 7,206 11.4 17.7°
